軌道要素
Epoch 2016 Apr. 2.0 TT = JDT 2457480.5
T 2016 Apr. 19.59789 TT MPCW
q 1.5597453 (2000.0) P Q
z +0.0156524 Peri. 214.40392 -0.56778426 +0.78259879
+/-0.0000050 Node 24.40450 -0.54512473 -0.12510477
e 0.9755862 Incl. 38.15650 -0.61681444 -0.60982614
From 138 observations 2016 Feb. 8-June 13, mean residual 0".4.
|